[[{"header":{"parameterUnit":"m.s-1","parameterCategory":2,"la1":30.2991,"la2":30.254,"lo1":-89.0895,"lo2":-89.0444,"dy":0.0017,"dx":0.0017,"nx":28,"ny":28,"refTime":"2025-12-10T09:00:00:Z","depth":"0","parameterNumber":2,"parameterNumberName":"U-component_of_CURRENTS"},"data":[0,0,0,0,0,0,0,0,0,0,0,0,0,0,0,0,0,0,0,0,0,0,0,0,0,0,0,0,0,0,0,0,0,0,0,0,0,0,0,0,0,0,0,0,0,0,0,0,0,0,0,0,0,0,0,0,0,0,-0.0422,-0.0422,0,-0.0387,-0.0386,-0.0385,-0.0378,-0.0378,-0.0379,-0.0379,-0.0321,-0.0319,-0.0317,0,0,0,0,0,0,0,0,0,0,0,0,0,-0.0436,-0.0436,-0.0422,-0.0422,-0.0422,-0.0387,-0.0386,-0.0385,-0.0377,-0.0378,-0.0379,-0.0379,-0.0322,-0.0319,-0.0317,0,0,0,0,0,0,0,0,0,0,0,0,0,-0.0415,-0.0436,-0.0422,-0.0416,-0.0415,-0.0387,-0.0386,-0.0385,-0.0377,-0.0378,-0.0379,-0.038,-0.0322,-0.0319,-0.0316,-0.0281,0,0,-0.0307,-0.0306,0,0,0,0,0,0,0,0,-0.0416,-0.0414,-0.0417,-0.0417,-0.0416,-0.039,-0.037,-0.035,-0.0377,-0.0388,-0.0379,-0.038,-0.0343,-0.0339,-0.0326,-0.0278,-0.0276,-0.0307,-0.0305,-0.0304,-0.0303,0,0,0,0,0,0,0,-0.0418,-0.0416,-0.0405,-0.0417,-0.0416,-0.0399,-0.0397,-0.0365,-0.0359,-0.0388,-0.0388,-0.0388,-0.0343,-0.0329,-0.0325,-0.0275,-0.0307,-0.0304,-0.0302,-0.0301,-0.0195,-0.0194,0,0,0,0,0,0,-0.043,-0.0417,-0.0406,-0.0404,-0.0422,-0.0399,-0.0396,-0.0395,-0.036,-0.0356,-0.0388,-0.0388,-0.0334,-0.0328,-0.0323,-0.0332,-0.0304,-0.0301,-0.0299,-0.0196,-0.0194,-0.0193,0,0,0,0,0,0,-0.043,-0.0429,-0.0408,-0.0412,-0.0409,-0.0398,-0.0396,-0.0394,-0.0394,-0.0361,-0.0356,-0.0393,-0.0334,-0.0327,-0.0302,-0.0328,-0.0299,-0.0296,-0.0197,-0.0195,-0.0194,-0.0317,0,0,0,0,0,0,-0.0431,-0.043,-0.0437,-0.0413,-0.0409,-0.0416,-0.0396,-0.0393,-0.0394,-0.0394,-0.0363,-0.0358,-0.0334,-0.0307,-0.0299,-0.0323,-0.0294,-0.0198,-0.0196,-0.0194,-0.0314,-0.032,-0.0325,0,0,0,0,0,-0.0431,-0.0446,-0.0437,-0.0436,-0.0418,-0.0417,-0.0414,-0.0406,-0.0394,-0.0405,-0.0371,-0.0359,-0.0289,-0.0304,-0.0295,-0.0319,-0.0199,-0.0197,-0.0194,-0.0312,-0.0319,-0.0325,0,0,0,0,0,0,-0.047,-0.0446,-0.0436,-0.0446,-0.0441,-0.0418,-0.0428,-0.0412,-0.0392,-0.0392,-0.0351,-0.0344,-0.0327,-0.0291,-0.0308,-0.0274,-0.024,-0.0235,-0.0332,-0.0338,-0.0343,-0.0414,-0.0292,0,0,0,0,0,-0.0477,-0.0475,-0.0457,-0.0469,-0.0468,-0.0445,-0.0443,-0.0437,-0.0416,-0.0409,-0.0384,-0.0344,-0.0306,-0.03,-0.0259,-0.0249,-0.0241,-0.025,-0.0256,-0.0261,-0.0307,-0.0296,-0.0307,-0.0186,-0.0186,-0.0186,0,0,-0.0493,-0.0483,-0.0481,-0.0475,-0.0468,-0.0495,-0.0447,-0.0456,-0.0483,-0.0403,-0.0426,-0.0362,-0.0301,-0.0289,-0.0279,-0.0271,-0.0286,-0.0259,-0.0265,-0.0308,-0.0295,-0.0308,-0.0319,-0.0185,-0.0185,-0.0185,0,0,-0.0543,-0.0518,-0.0543,-0.0545,-0.0544,-0.0533,-0.054,-0.0523,-0.0522,-0.0519,-0.0461,-0.0422,-0.0372,-0.0345,-0.0319,-0.0325,-0.0306,-0.0292,-0.0399,-0.0386,-0.0398,-0.0409,-0.0413,-0.0422,-0.0308,-0.0308,-0.0308,0,-0.0576,-0.0597,-0.0553,-0.059,-0.0606,-0.0559,-0.0608,-0.0599,-0.0578,-0.0577,-0.0547,-0.0463,-0.041,-0.0399,-0.0402,-0.0348,-0.0339,-0.0389,-0.0401,-0.0411,-0.042,-0.0421,-0.0431,-0.0313,-0.0313,-0.0312,-0.0312,0,-0.0645,-0.0672,-0.069,-0.0718,-0.0728,-0.0756,-0.0745,-0.0752,-0.0729,-0.0709,-0.0685,-0.0604,-0.0558,-0.0521,-0.0473,-0.0493,-0.0466,-0.0406,-0.0405,-0.0441,-0.0438,-0.0446,-0.0322,-0.032,-0.0318,-0.0316,0,0,-0.0695,-0.0735,-0.0741,-0.078,-0.0797,-0.0814,-0.0859,-0.0876,-0.09,-0.086,-0.0883,-0.0805,-0.0743,-0.0708,-0.0625,-0.0626,-0.0665,-0.0562,-0.0558,-0.0605,-0.066,-0.0623,-0.0627,-0.061,-0.0612,-0.0613,-0.0635,0,-0.0771,-0.0862,-0.0859,-0.095,-0.0996,-0.0978,-0.102,-0.1024,-0.1005,-0.101,-0.093,-0.09,-0.0817,-0.0783,-0.0774,-0.0672,-0.0691,-0.0667,-0.0586,-0.0585,-0.058,-0.0637,-0.0613,-0.0629,-0.0642,-0.0643,-0.0644,0,-0.0829,-0.089,-0.0989,-0.1062,-0.108,-0.1121,-0.1165,-0.1196,-0.1182,-0.1163,-0.1131,-0.1055,-0.1025,-0.0944,-0.0874,-0.086,-0.0797,-0.0735,-0.0732,-0.0674,-0.0564,-0.059,-0.0642,-0.0615,-0.0656,-0.0655,-0.0654,0,-0.0856,-0.0969,-0.1049,-0.1076,-0.1154,-0.1191,-0.1221,-0.1231,-0.1249,-0.1249,-0.1242,-0.1197,-0.1143,-0.1084,-0.0945,-0.0916,-0.0876,-0.0801,-0.0727,-0.0722,-0.0678,-0.0667,-0.0733,-0.0803,-0.0803,-0.0803,-0.0803,0,-0.0909,-0.0966,-0.1068,-0.1108,-0.1204,-0.1234,-0.1303,-0.1321,-0.1338,-0.1347,-0.1305,-0.1292,-0.1176,-0.1114,-0.1014,-0.09,-0.0924,-0.0788,-0.0739,-0.0715,-0.0707,-0.0657,-0.0644,-0.0804,-0.0804,-0.0804,-0.0803,0,-0.088,-0.0956,-0.105,-0.1167,-0.1208,-0.1259,-0.134,-0.1376,-0.1393,-0.1407,-0.1405,-0.1361,-0.1277,-0.1171,-0.1057,-0.0965,-0.0849,-0.0828,-0.0819,-0.0769,-0.0667,-0.0659,-0.0706,-0.0674,-0.0769,-0.0769,-0.0768,0,-0.086,-0.0906,-0.1066,-0.1123,-0.1168,-0.126,-0.1312,-0.1382,-0.1411,-0.1431,-0.1427,-0.1377,-0.1286,-0.1136,-0.101,-0.0877,-0.0832,-0.0784,-0.0727,-0.0708,-0.0662,-0.0667,-0.0637,-0.0713,-0.0712,-0.0711,-0.0711,0,-0.0802,-0.0855,-0.0935,-0.1049,-0.1134,-0.1239,-0.1315,-0.1349,-0.1408,-0.1381,-0.1324,-0.126,-0.1187,-0.1031,-0.0912,-0.0823,-0.0772,-0.0763,-0.0743,-0.0654,-0.0666,-0.0593,-0.0663,-0.0704,-0.0705,-0.0705,-0.0706,-0.0706,-0.0721,-0.0758,-0.0844,-0.094,-0.1056,-0.1132,-0.113,-0.1176,-0.1153,-0.1032,-0.1129,-0.0931,-0.1003,-0.0819,-0.0767,-0.0693,-0.0702,-0.0624,-0.0627,-0.0643,-0.0597,-0.0671,-0.0644,-0.0644,-0.0645,-0.0645,-0.0645,0,-0.0597,-0.0638,-0.0717,-0.0821,-0.0885,-0.0987,-0.1058,-0.0988,-0.0854,-0.0777,-0.0646,-0.0566,-0.0549,-0.0597,-0.0612,-0.0558,-0.0546,-0.0536,-0.0547,-0.0525,-0.0588,-0.0568,-0.0523,-0.0523,-0.0523,-0.0523,-0.0523,-0.0523,-0.0531,-0.053,-0.0573,-0.0602,-0.0679,-0.0674,-0.0672,-0.0563,-0.047,-0.0213,-0.0055,-0.0026,-0.0246,-0.0448,-0.0497,-0.0486,-0.0461,-0.0471,-0.0453,-0.0498,-0.0507,-0.0515,-0.0494,-0.0434,-0.0434,-0.0379,-0.0378,-0.0378]},{"header":{"parameterUnit":"m.s-1","parameterCategory":2,"la1":30.2991,"la2":30.254,"lo1":-89.0895,"lo2":-89.0444,"dy":0.0017,"dx":0.0017,"nx":28,"ny":28,"refTime":"2025-12-10T09:00:00:Z","depth":"0","parameterNumber":3,"parameterNumberName":"V-component_of_CURRENTS"},"data":[0,0,0,0,0,0,0,0,0,0,0,0,0,0,0,0,0,0,0,0,0,0,0,0,0,0,0,0,0,0,0,0,0,0,0,0,0,0,0,0,0,0,0,0,0,0,0,0,0,0,0,0,0,0,0,0,0,0,-0.0028,-0.0028,0,0.0038,0.0039,0.004,-0.0003,-0.0005,-0.0007,-0.0009,-0.0027,-0.0025,-0.0024,0,0,0,0,0,0,0,0,0,0,0,0,0,-0.0119,-0.0117,-0.0028,-0.0028,-0.0027,0.0038,0.0039,0.004,-0.0002,-0.0005,-0.0008,-0.001,-0.0028,-0.0026,-0.0024,0,0,0,0,0,0,0,0,0,0,0,0,0,-0.0066,-0.0116,-0.0029,-0.0043,-0.0044,0.0038,0.0039,0.0041,-0.0002,-0.0005,-0.0008,-0.0012,-0.0028,-0.0026,-0.0023,0.006,0,0,-0.0016,-0.0015,0,0,0,0,0,0,0,0,-0.0069,-0.0062,-0.0041,-0.0042,-0.0043,0.0003,0.0001,0.0042,-0.0001,-0.0014,-0.0009,-0.0013,-0.0024,-0.0022,0.0003,0.0059,0.0058,-0.0016,-0.0014,-0.0013,-0.0012,0,0,0,0,0,0,0,-0.0073,-0.0065,0.0001,-0.0041,-0.0041,-0.0027,-0.0024,0.0009,-0.0,-0.0014,-0.0017,-0.0013,-0.0025,0.0001,0.0002,0.0058,-0.0016,-0.0014,-0.0012,-0.0011,0.0218,0.0222,0,0,0,0,0,0,-0.0086,-0.0068,-0.0001,0.0003,-0.0068,-0.0024,-0.002,-0.0005,0.0001,-0.0001,-0.0011,-0.0016,-0.0001,-0.0,0.0001,0.009,-0.0013,-0.0011,-0.0009,0.0213,0.0219,0.0224,0,0,0,0,0,0,-0.0088,-0.008,-0.0004,-0.0035,-0.0025,-0.0019,-0.0002,-0.0002,0.0015,0.0004,-0.0001,0.0005,-0.0004,-0.0002,0.003,0.0088,-0.001,-0.0007,0.0208,0.0215,0.0221,0.0272,0,0,0,0,0,0,-0.0091,-0.0081,-0.0064,-0.0035,-0.0023,0.005,0.0,0.0001,0.0022,0.0016,0.0017,0.0012,-0.0006,0.0027,0.0032,0.009,-0.0006,0.0202,0.0211,0.0219,0.0265,0.028,0.0293,0,0,0,0,0,-0.0094,-0.0052,-0.0063,-0.0055,-0.0003,0.0052,0.0061,0.0054,0.0026,0.0054,0.0045,0.0011,0.0087,0.0031,0.0037,0.0097,0.0198,0.0208,0.0219,0.0259,0.0277,0.0293,0,0,0,0,0,0,-0.0073,-0.0051,-0.0063,-0.0016,0.0013,0.0043,0.0074,0.0067,0.0089,0.0073,0.0051,0.0049,0.0106,0.0112,0.0051,0.0199,0.0147,0.0159,0.0176,0.0193,0.0207,0.0158,-0.0004,0,0,0,0,0,-0.0061,-0.0035,-0.0009,0.0028,0.0046,0.0062,0.0085,0.0079,0.0096,0.0102,0.0108,0.0128,0.0165,0.0178,0.0213,0.0283,0.0254,0.0339,0.0354,0.0365,0.0337,0.0361,0.0372,0.0258,0.0258,0.0258,0,0,-0.005,-0.003,-0.0019,0.0032,0.0054,0.0093,0.0069,0.0108,0.0134,0.0099,0.015,0.0173,0.0197,0.027,0.0301,0.0271,0.0389,0.0378,0.0386,0.0351,0.0373,0.0383,0.0391,0.0265,0.0264,0.0263,0,0,-0.0017,0.0013,0.0037,0.007,0.0105,0.0127,0.0139,0.0179,0.0192,0.0248,0.0236,0.0284,0.0349,0.0374,0.0393,0.0517,0.0463,0.0556,0.0578,0.0604,0.0611,0.0617,0.0598,0.0602,0.0562,0.0562,0.0562,0,-0.0004,0.0022,0.0057,0.0093,0.0113,0.0141,0.0168,0.0214,0.0258,0.0265,0.0268,0.037,0.0397,0.0462,0.0509,0.0542,0.0526,0.0497,0.0614,0.0619,0.0624,0.0603,0.0606,0.0566,0.0565,0.0565,0.0565,0,0.0032,0.0059,0.0088,0.013,0.0172,0.0207,0.0257,0.0302,0.0324,0.0346,0.0419,0.0474,0.0509,0.0573,0.0571,0.0646,0.0612,0.0621,0.0546,0.0637,0.0612,0.0614,0.0571,0.057,0.0569,0.0568,0,0,0.0045,0.0092,0.0101,0.0101,0.0183,0.0209,0.0283,0.0331,0.034,0.0429,0.0446,0.0567,0.057,0.0596,0.0631,0.0676,0.0718,0.0661,0.0661,0.0598,0.0734,0.075,0.0753,0.0736,0.0737,0.0738,0.0701,0,0.0053,0.0078,0.0122,0.0159,0.0174,0.0231,0.0285,0.0336,0.0384,0.0424,0.0498,0.054,0.059,0.0604,0.0661,0.0697,0.0725,0.0724,0.0693,0.0691,0.0658,0.0758,0.0794,0.0768,0.0702,0.0702,0.0703,0,0.0076,0.0078,0.0092,0.0122,0.0136,0.0172,0.0222,0.0274,0.0349,0.0381,0.0441,0.0483,0.0564,0.0597,0.0682,0.0672,0.0696,0.0733,0.0732,0.0719,0.0712,0.0673,0.0773,0.0782,0.0705,0.0705,0.0705,0,0.0031,0.0068,0.0056,0.0073,0.0123,0.0136,0.017,0.0244,0.0271,0.0339,0.0352,0.0447,0.0479,0.0554,0.0633,0.0649,0.0704,0.0733,0.0766,0.0765,0.0773,0.0773,0.0836,0.0777,0.0778,0.0778,0.0778,0,0.003,0.0031,0.002,0.0017,0.0004,0.0067,0.0078,0.0128,0.0189,0.0219,0.0306,0.0343,0.047,0.0524,0.06,0.0681,0.0672,0.0767,0.077,0.0799,0.0801,0.0788,0.0804,0.0776,0.0777,0.0777,0.0777,0,0.0019,0.001,-0.001,-0.0012,-0.0016,-0.0024,0.0013,0.0026,0.0086,0.0129,0.0146,0.0249,0.0334,0.0439,0.0546,0.0626,0.0751,0.0729,0.0733,0.0739,0.0816,0.0834,0.0901,0.098,0.0778,0.0778,0.0778,0,0.0029,0.0003,-0.0054,-0.0083,-0.0082,-0.0092,-0.0089,-0.0032,-0.001,0.0083,0.0096,0.0179,0.0275,0.0418,0.0562,0.0682,0.0737,0.077,0.0841,0.0827,0.085,0.0873,0.0937,0.0866,0.0867,0.0868,0.0868,0,0.0036,-0.0007,-0.0042,-0.0124,-0.0152,-0.0165,-0.0158,-0.0152,-0.0066,0.0022,0.0137,0.0222,0.033,0.0501,0.0616,0.0706,0.0833,0.0792,0.0795,0.0942,0.0955,0.1028,0.0841,0.0876,0.0875,0.0875,0.0874,0.0874,0.0044,-0.0003,-0.0081,-0.0147,-0.0189,-0.0204,-0.0185,-0.012,-0.0024,0.0191,0.0228,0.0467,0.0507,0.0705,0.0763,0.0857,0.0894,0.093,0.0952,0.0973,0.1073,0.0883,0.092,0.092,0.0919,0.0919,0.0919,0,0.0065,-0.0012,-0.0088,-0.0165,-0.0204,-0.0217,-0.0198,-0.0108,0.0069,0.0319,0.0546,0.0806,0.0858,0.0873,0.0916,0.0998,0.1074,0.1035,0.1074,0.1139,0.0973,0.1,0.1038,0.1038,0.1038,0.1038,0.1038,0.1038,0.0073,-0.001,-0.0073,-0.0154,-0.0192,-0.0183,-0.015,0.004,0.0232,0.0674,0.0978,0.1197,0.1115,0.0998,0.0999,0.1052,0.1163,0.1171,0.1225,0.1078,0.1069,0.1061,0.109,0.1146,0.1146,0.1415,0.1417,0.1419]}],[{"header":{"parameterUnit":"m.s-1","parameterCategory":2,"la1":30.2991,"la2":30.254,"lo1":-89.0895,"lo2":-89.0444,"dy":0.0017,"dx":0.0017,"nx":28,"ny":28,"refTime":"2025-12-10T09:00:00:Z","depth":"2","parameterNumber":2,"parameterNumberName":"U-component_of_CURRENTS"},"data":[0,0,0,0,0,0,0,0,0,0,0,0,0,0,0,0,0,0,0,0,0,0,0,0,0,0,0,0,0,0,0,0,0,0,0,0,0,0,0,0,0,0,0,0,0,0,0,0,0,0,0,0,0,0,0,0,0,0,-0.2228,-0.2228,0,-0.2219,-0.2219,-0.2219,-0.2195,-0.2195,-0.2194,-0.2194,-0.213,-0.2128,-0.2127,0,0,0,0,0,0,0,0,0,0,0,0,0,-0.2218,-0.2218,-0.2228,-0.2228,-0.2228,-0.2219,-0.2219,-0.2219,-0.2195,-0.2195,-0.2194,-0.2194,-0.213,-0.2128,-0.2127,0,0,0,0,0,0,0,0,0,0,0,0,0,-0.2217,-0.2218,-0.2228,-0.2215,-0.2214,-0.2219,-0.2219,-0.2219,-0.2195,-0.2195,-0.2194,-0.2193,-0.213,-0.2129,-0.2127,-0.213,0,0,-0.2121,-0.212,0,0,0,0,0,0,0,0,-0.2217,-0.2217,-0.2217,-0.2216,-0.2215,-0.2208,-0.2192,-0.2186,-0.2196,-0.2202,-0.2194,-0.2193,-0.2151,-0.2148,-0.2148,-0.2127,-0.2124,-0.2121,-0.212,-0.2119,-0.2118,0,0,0,0,0,0,0,-0.2217,-0.2217,-0.2224,-0.2217,-0.2216,-0.2208,-0.2207,-0.2191,-0.218,-0.2202,-0.22,-0.22,-0.215,-0.215,-0.2146,-0.2123,-0.2121,-0.2119,-0.2118,-0.2117,-0.203,-0.2029,0,0,0,0,0,0,-0.222,-0.2217,-0.2224,-0.2224,-0.2214,-0.2209,-0.2207,-0.2211,-0.2181,-0.2176,-0.22,-0.2199,-0.2154,-0.2148,-0.2144,-0.2086,-0.2119,-0.2117,-0.2116,-0.2031,-0.203,-0.2028,0,0,0,0,0,0,-0.222,-0.2221,-0.2225,-0.222,-0.222,-0.221,-0.2213,-0.2211,-0.2193,-0.2181,-0.2175,-0.2183,-0.2153,-0.2146,-0.2108,-0.2085,-0.2116,-0.2114,-0.2033,-0.2031,-0.2029,-0.2007,0,0,0,0,0,0,-0.2219,-0.2221,-0.2224,-0.2221,-0.2221,-0.2222,-0.2214,-0.2211,-0.2195,-0.2192,-0.2164,-0.2158,-0.2152,-0.2111,-0.2106,-0.2083,-0.2113,-0.2034,-0.2032,-0.203,-0.201,-0.2005,-0.2001,0,0,0,0,0,-0.2219,-0.2233,-0.2224,-0.2225,-0.2225,-0.2222,-0.2221,-0.2211,-0.2195,-0.219,-0.216,-0.2158,-0.2093,-0.2108,-0.2103,-0.2079,-0.2035,-0.2032,-0.203,-0.2011,-0.2006,-0.2001,0,0,0,0,0,0,-0.2233,-0.2232,-0.2222,-0.2234,-0.2223,-0.2218,-0.2215,-0.2201,-0.2176,-0.2162,-0.2146,-0.2138,-0.2095,-0.2089,-0.2107,-0.2046,-0.2063,-0.2059,-0.2051,-0.2045,-0.2041,-0.2056,-0.2111,0,0,0,0,0,-0.2237,-0.2244,-0.2234,-0.2242,-0.2233,-0.2217,-0.2213,-0.22,-0.2179,-0.2167,-0.2141,-0.211,-0.2084,-0.2066,-0.2044,-0.2014,-0.1999,-0.1993,-0.1989,-0.1986,-0.1993,-0.1954,-0.1947,-0.202,-0.202,-0.202,0,0,-0.2248,-0.2245,-0.2251,-0.2245,-0.2233,-0.2228,-0.2212,-0.2198,-0.2186,-0.2163,-0.2126,-0.2093,-0.2072,-0.2035,-0.2015,-0.2025,-0.195,-0.1983,-0.198,-0.1989,-0.1951,-0.1944,-0.1938,-0.2018,-0.2018,-0.2018,0,0,-0.227,-0.2262,-0.2271,-0.2259,-0.2238,-0.2227,-0.2217,-0.219,-0.2168,-0.2131,-0.2106,-0.2061,-0.2022,-0.2,-0.1987,-0.1947,-0.1929,-0.1931,-0.1922,-0.1883,-0.1878,-0.1872,-0.1818,-0.1808,-0.193,-0.193,-0.1929,0,-0.2287,-0.2293,-0.2272,-0.2269,-0.2263,-0.2224,-0.2223,-0.2199,-0.2159,-0.2136,-0.2115,-0.2037,-0.201,-0.1973,-0.1951,-0.1939,-0.1907,-0.1944,-0.1879,-0.1874,-0.1869,-0.1814,-0.1804,-0.1928,-0.1928,-0.1928,-0.1929,0,-0.2309,-0.2309,-0.2309,-0.2295,-0.2279,-0.2275,-0.2235,-0.2203,-0.2162,-0.2133,-0.2068,-0.2021,-0.1981,-0.1952,-0.1937,-0.1884,-0.1867,-0.1878,-0.1895,-0.186,-0.1805,-0.1794,-0.1926,-0.1927,-0.1927,-0.1927,0,0,-0.2366,-0.2338,-0.2336,-0.2325,-0.2293,-0.2281,-0.2251,-0.2217,-0.2188,-0.2124,-0.2087,-0.2016,-0.1976,-0.1958,-0.1921,-0.1875,-0.1793,-0.1854,-0.1853,-0.1807,-0.1685,-0.1649,-0.1634,-0.1787,-0.1786,-0.1785,-0.1652,0,-0.2395,-0.2399,-0.2374,-0.2365,-0.2359,-0.2313,-0.2288,-0.2241,-0.219,-0.2139,-0.2071,-0.2019,-0.1984,-0.1948,-0.1897,-0.1825,-0.1768,-0.1827,-0.1722,-0.1719,-0.1697,-0.1622,-0.1498,-0.1368,-0.1641,-0.164,-0.1638,0,-0.2423,-0.2422,-0.2423,-0.2389,-0.238,-0.2361,-0.2307,-0.228,-0.2205,-0.2161,-0.2098,-0.2043,-0.1962,-0.1938,-0.1801,-0.1836,-0.1758,-0.1698,-0.1692,-0.1665,-0.1664,-0.1451,-0.1338,-0.1621,-0.1622,-0.1623,-0.1624,0,-0.2463,-0.2452,-0.2453,-0.2444,-0.2401,-0.2378,-0.235,-0.228,-0.2243,-0.2171,-0.2127,-0.2042,-0.1974,-0.1884,-0.1754,-0.177,-0.1598,-0.1615,-0.1507,-0.1503,-0.1382,-0.1371,-0.1516,-0.1516,-0.1516,-0.1517,-0.1517,0,-0.251,-0.2504,-0.2465,-0.2463,-0.2442,-0.2398,-0.2361,-0.2319,-0.2252,-0.2189,-0.2136,-0.2063,-0.1952,-0.1842,-0.1747,-0.1582,-0.1592,-0.1486,-0.1462,-0.1368,-0.1357,-0.158,-0.159,-0.1512,-0.1513,-0.1514,-0.1515,0,-0.2543,-0.253,-0.2515,-0.2473,-0.2455,-0.2431,-0.2368,-0.2323,-0.2276,-0.2193,-0.2166,-0.2056,-0.1904,-0.179,-0.1622,-0.1554,-0.1422,-0.1364,-0.1253,-0.1219,-0.1354,-0.1363,-0.1229,-0.1227,-0.1225,-0.1223,-0.1222,0,-0.2566,-0.2559,-0.2514,-0.2474,-0.2446,-0.2411,-0.2363,-0.2331,-0.2275,-0.2169,-0.2111,-0.1972,-0.1823,-0.1588,-0.1416,-0.1234,-0.1325,-0.1076,-0.1098,-0.1331,-0.1322,-0.1335,-0.1347,-0.0908,-0.0904,-0.0901,-0.0898,0,-0.2567,-0.2536,-0.2498,-0.2435,-0.2381,-0.2344,-0.2278,-0.2255,-0.2185,-0.2113,-0.1962,-0.1846,-0.1602,-0.1336,-0.1141,-0.1042,-0.1104,-0.1008,-0.1244,-0.1026,-0.1024,-0.1018,-0.104,-0.087,-0.0873,-0.0875,-0.0876,-0.0877,-0.252,-0.2484,-0.2401,-0.2332,-0.2281,-0.2206,-0.2139,-0.2077,-0.1985,-0.1758,-0.1761,-0.1485,-0.1363,-0.0945,-0.0859,-0.0788,-0.0857,-0.0831,-0.0842,-0.0856,-0.0868,-0.0866,-0.0682,-0.0683,-0.0685,-0.0686,-0.0687,0,-0.2417,-0.2354,-0.2286,-0.2171,-0.2069,-0.2088,-0.2004,-0.1881,-0.1728,-0.1517,-0.1324,-0.1009,-0.0808,-0.0725,-0.0538,-0.0511,-0.0517,-0.0537,-0.0543,-0.0569,-0.0593,-0.0595,-0.0334,-0.0334,-0.0333,-0.0333,0,0,-0.2341,-0.2223,-0.218,-0.1959,-0.1881,-0.1718,-0.1652,-0.149,-0.1322,-0.0989,-0.0768,-0.0622,-0.0633,-0.0438,-0.0417,-0.0354,-0.0465,-0.0339,-0.0609,-0.0637,-0.0661,-0.0735,-0.0764,0,0,0,0,0]},{"header":{"parameterUnit":"m.s-1","parameterCategory":2,"la1":30.2991,"la2":30.254,"lo1":-89.0895,"lo2":-89.0444,"dy":0.0017,"dx":0.0017,"nx":28,"ny":28,"refTime":"2025-12-10T09:00:00:Z","depth":"2","parameterNumber":3,"parameterNumberName":"V-component_of_CURRENTS"},"data":[0,0,0,0,0,0,0,0,0,0,0,0,0,0,0,0,0,0,0,0,0,0,0,0,0,0,0,0,0,0,0,0,0,0,0,0,0,0,0,0,0,0,0,0,0,0,0,0,0,0,0,0,0,0,0,0,0,0,-0.0176,-0.0177,0,-0.0176,-0.0176,-0.0176,-0.0145,-0.0145,-0.0144,-0.0144,-0.0163,-0.0164,-0.0165,0,0,0,0,0,0,0,0,0,0,0,0,0,-0.0105,-0.0107,-0.0176,-0.0177,-0.0177,-0.0176,-0.0176,-0.0176,-0.0145,-0.0145,-0.0144,-0.0143,-0.0162,-0.0164,-0.0165,0,0,0,0,0,0,0,0,0,0,0,0,0,-0.0122,-0.0107,-0.0176,-0.0164,-0.0163,-0.0177,-0.0176,-0.0176,-0.0145,-0.0145,-0.0144,-0.0143,-0.0162,-0.0163,-0.0165,-0.0192,0,0,-0.017,-0.017,0,0,0,0,0,0,0,0,-0.0121,-0.0124,-0.0165,-0.0164,-0.0163,-0.0162,-0.0158,-0.0183,-0.0146,-0.0149,-0.0144,-0.0143,-0.0167,-0.0168,-0.0166,-0.0192,-0.0193,-0.017,-0.0171,-0.0171,-0.0172,0,0,0,0,0,0,0,-0.012,-0.0123,-0.0174,-0.0166,-0.0165,-0.0143,-0.0144,-0.0162,-0.0161,-0.0149,-0.0147,-0.0152,-0.0166,-0.0164,-0.0166,-0.0194,-0.017,-0.0171,-0.0172,-0.0173,-0.0303,-0.0306,0,0,0,0,0,0,-0.0129,-0.0123,-0.0174,-0.0174,-0.0143,-0.0145,-0.0147,-0.0161,-0.016,-0.016,-0.0152,-0.015,-0.0162,-0.0164,-0.0167,-0.0223,-0.0171,-0.0173,-0.0174,-0.0301,-0.0304,-0.0306,0,0,0,0,0,0,-0.0127,-0.0134,-0.0174,-0.015,-0.0153,-0.0148,-0.0164,-0.0162,-0.0176,-0.0163,-0.0163,-0.0171,-0.0161,-0.0164,-0.0207,-0.0222,-0.0174,-0.0175,-0.0298,-0.0302,-0.0305,-0.032,0,0,0,0,0,0,-0.0126,-0.0134,-0.0152,-0.0151,-0.0155,-0.0195,-0.0165,-0.0163,-0.018,-0.0178,-0.0179,-0.0178,-0.0161,-0.0205,-0.0208,-0.0224,-0.0176,-0.0294,-0.0299,-0.0304,-0.0316,-0.0324,-0.033,0,0,0,0,0,-0.0123,-0.0148,-0.0153,-0.0159,-0.018,-0.0196,-0.0197,-0.0187,-0.0182,-0.0195,-0.0204,-0.0179,-0.0237,-0.0208,-0.0212,-0.0228,-0.0292,-0.0298,-0.0304,-0.0313,-0.0322,-0.033,0,0,0,0,0,0,-0.0123,-0.0148,-0.0152,-0.0183,-0.0197,-0.0192,-0.0205,-0.0205,-0.0221,-0.0224,-0.0211,-0.0212,-0.0256,-0.0256,-0.0224,-0.0286,-0.0262,-0.0268,-0.0268,-0.0276,-0.0283,-0.0221,-0.0178,0,0,0,0,0,-0.0136,-0.0163,-0.0178,-0.0205,-0.0216,-0.0218,-0.0226,-0.0225,-0.0236,-0.0242,-0.0248,-0.0263,-0.0282,-0.029,-0.031,-0.0344,-0.0294,-0.0362,-0.0369,-0.0374,-0.0331,-0.028,-0.0276,-0.0325,-0.0325,-0.0325,0,0,-0.0142,-0.0161,-0.0175,-0.0207,-0.0216,-0.0231,-0.0221,-0.0244,-0.0251,-0.0245,-0.0272,-0.0294,-0.0302,-0.0335,-0.0354,-0.0334,-0.0344,-0.0381,-0.0385,-0.0338,-0.0285,-0.0279,-0.0274,-0.0329,-0.0328,-0.0328,0,0,-0.0163,-0.019,-0.0216,-0.0231,-0.0257,-0.0257,-0.0272,-0.0289,-0.0292,-0.0328,-0.0326,-0.0345,-0.0393,-0.0376,-0.0378,-0.044,-0.039,-0.048,-0.0449,-0.0402,-0.0395,-0.0388,-0.0342,-0.0331,-0.0474,-0.0474,-0.0474,0,-0.0168,-0.0207,-0.0225,-0.0249,-0.0261,-0.0273,-0.0294,-0.0299,-0.0328,-0.0326,-0.0343,-0.0376,-0.0392,-0.0387,-0.0411,-0.0445,-0.0418,-0.0409,-0.0402,-0.0395,-0.0387,-0.0342,-0.0329,-0.0475,-0.0475,-0.0475,-0.0475,0,-0.0204,-0.0235,-0.0253,-0.0285,-0.0297,-0.0325,-0.0331,-0.0349,-0.0363,-0.0357,-0.0377,-0.0391,-0.0392,-0.0425,-0.0433,-0.0408,-0.0408,-0.0419,-0.0362,-0.0381,-0.0335,-0.0322,-0.0477,-0.0477,-0.0476,-0.0476,0,0,-0.0228,-0.0269,-0.0279,-0.0297,-0.0322,-0.0338,-0.0346,-0.0351,-0.0343,-0.0367,-0.0347,-0.038,-0.0373,-0.0374,-0.0392,-0.0353,-0.0301,-0.0367,-0.0364,-0.0286,-0.0197,-0.0177,-0.016,-0.0315,-0.0312,-0.031,-0.0192,0,-0.0256,-0.0308,-0.031,-0.0348,-0.038,-0.0373,-0.0372,-0.037,-0.0368,-0.0354,-0.0338,-0.034,-0.0359,-0.0366,-0.0327,-0.0316,-0.0262,-0.033,-0.0218,-0.0214,-0.0163,-0.0142,-0.0258,-0.016,-0.0179,-0.0176,-0.0175,0,-0.0308,-0.0333,-0.0376,-0.0388,-0.0396,-0.0403,-0.0395,-0.0393,-0.0355,-0.0349,-0.0316,-0.0306,-0.0258,-0.0278,-0.0189,-0.0239,-0.0204,-0.0182,-0.0177,-0.0125,-0.0166,-0.0143,-0.0134,-0.0151,-0.0153,-0.0155,-0.0156,0,-0.0357,-0.0386,-0.0421,-0.0432,-0.0437,-0.0435,-0.0427,-0.0397,-0.0386,-0.0335,-0.0313,-0.0255,-0.0226,-0.0166,-0.0118,-0.0155,-0.0008,-0.0055,0.0013,0.0013,-0.0039,-0.0047,0.0048,0.0048,0.0048,0.0047,0.0047,0,-0.0418,-0.0449,-0.0446,-0.0473,-0.0493,-0.047,-0.0466,-0.0449,-0.0396,-0.0363,-0.031,-0.0259,-0.0195,-0.0114,-0.0078,0.0025,0.0034,0.0056,0.0061,-0.0056,-0.0066,-0.0022,-0.0031,0.0052,0.0051,0.005,0.0049,0,-0.0502,-0.0498,-0.054,-0.0534,-0.0531,-0.0551,-0.0514,-0.0498,-0.0436,-0.0385,-0.0365,-0.0254,-0.0136,-0.0056,0.0055,0.0082,0.0167,0.0203,0.0066,0.0054,0.0144,0.0131,0.0293,0.0295,0.0297,0.0298,0.0299,0,-0.0565,-0.0592,-0.0603,-0.0618,-0.0622,-0.0624,-0.0615,-0.055,-0.0517,-0.0377,-0.0349,-0.0204,-0.011,0.0076,0.0111,0.0207,0.0255,0.0219,0.0143,0.0189,0.0177,0.0161,0.0146,0.0047,0.0046,0.0045,0.0044,0,-0.0675,-0.0668,-0.0695,-0.0719,-0.0722,-0.0712,-0.0681,-0.0659,-0.0549,-0.0473,-0.0329,-0.0232,-0.0075,-0.0008,0.0126,0.0167,0.0188,0.021,0.0311,0.0006,-0.0033,-0.0049,-0.0057,0.0037,0.0038,0.0039,0.0039,0.0039,-0.0758,-0.0796,-0.0808,-0.0828,-0.0814,-0.0783,-0.0754,-0.069,-0.0615,-0.0489,-0.0395,-0.0265,-0.0171,-0.0052,0.0066,0.0161,0.0145,0.0171,0.0168,0.0167,0.0122,0.0089,0.0173,0.0174,0.0175,0.0177,0.0178,0,-0.087,-0.088,-0.0907,-0.0905,-0.0882,-0.085,-0.0775,-0.0718,-0.0611,-0.0534,-0.0432,-0.0346,-0.0274,-0.0107,-0.0035,0.0052,0.0008,0.0145,0.0041,0.0044,0.0047,-0.0007,0.0012,0.0013,0.0014,0.0015,0,0,-0.0931,-0.0984,-0.0979,-0.0963,-0.0932,-0.0856,-0.0797,-0.0705,-0.0618,-0.0519,-0.0458,-0.0487,-0.0299,-0.0252,-0.0151,-0.0054,-0.0005,-0.0031,0.0069,-0.0069,-0.0064,0.0005,-0.0082,0,0,0,0,0]}],[{"header":{"parameterUnit":"m.s-1","parameterCategory":2,"la1":30.2991,"la2":30.254,"lo1":-89.0895,"lo2":-89.0444,"dy":0.0017,"dx":0.0017,"nx":28,"ny":28,"refTime":"2025-12-10T09:00:00:Z","depth":"4","parameterNumber":2,"parameterNumberName":"U-component_of_CURRENTS"},"data":[0,0,0,0,0,0,0,0,0,0,0,0,0,0,0,0,0,0,0,0,0,0,0,0,0,0,0,0,0,0,0,0,0,0,0,0,0,0,0,0,0,0,0,0,0,0,0,0,0,0,0,0,0,0,0,0,0,0,-0.0729,-0.0729,0,-0.0783,-0.0784,-0.0785,-0.0791,-0.0791,-0.079,-0.0789,-0.0891,-0.0894,-0.0897,0,0,0,0,0,0,0,0,0,0,0,0,0,-0.0678,-0.0679,-0.0729,-0.0729,-0.073,-0.0783,-0.0784,-0.0785,-0.0791,-0.0791,-0.079,-0.0789,-0.089,-0.0894,-0.0898,0,0,0,0,0,0,0,0,0,0,0,0,0,-0.0714,-0.0679,-0.0729,-0.0739,-0.074,-0.0783,-0.0784,-0.0785,-0.0792,-0.0791,-0.079,-0.0789,-0.0889,-0.0893,-0.0898,-0.0948,0,0,-0.0913,-0.0916,0,0,0,0,0,0,0,0,-0.0712,-0.0716,-0.0737,-0.0738,-0.0739,-0.0778,-0.0803,-0.0842,-0.0792,-0.0773,-0.0789,-0.0788,-0.0858,-0.0865,-0.0879,-0.0953,-0.0958,-0.0914,-0.0917,-0.0919,-0.092,0,0,0,0,0,0,0,-0.0709,-0.0714,-0.0752,-0.0737,-0.0739,-0.0756,-0.076,-0.0811,-0.0822,-0.0775,-0.0775,-0.0779,-0.0859,-0.0874,-0.0881,-0.0959,-0.0914,-0.0918,-0.0921,-0.0923,-0.1067,-0.1067,0,0,0,0,0,0,-0.0699,-0.0711,-0.075,-0.0753,-0.0722,-0.0758,-0.0762,-0.0768,-0.0821,-0.0827,-0.078,-0.078,-0.0866,-0.0875,-0.0885,-0.094,-0.0919,-0.0924,-0.0927,-0.1066,-0.1067,-0.1068,0,0,0,0,0,0,-0.0698,-0.0702,-0.0748,-0.0732,-0.0739,-0.0759,-0.0766,-0.0769,-0.0796,-0.0824,-0.0831,-0.0804,-0.0865,-0.0878,-0.0922,-0.0944,-0.0926,-0.093,-0.1065,-0.1066,-0.1067,-0.1056,0,0,0,0,0,0,-0.0696,-0.0701,-0.0711,-0.0732,-0.0739,-0.0774,-0.0767,-0.0771,-0.0799,-0.0799,-0.0847,-0.0855,-0.0866,-0.0914,-0.0927,-0.0951,-0.0934,-0.1064,-0.1065,-0.1067,-0.1055,-0.1056,-0.1057,0,0,0,0,0,-0.0694,-0.0705,-0.0711,-0.0716,-0.0749,-0.0775,-0.0781,-0.0793,-0.0801,-0.0814,-0.0837,-0.0854,-0.0933,-0.0919,-0.0934,-0.0959,-0.1063,-0.1065,-0.1067,-0.1054,-0.1056,-0.1057,0,0,0,0,0,0,-0.0686,-0.0707,-0.0714,-0.073,-0.0752,-0.0775,-0.0793,-0.0807,-0.0838,-0.0844,-0.0868,-0.0878,-0.0922,-0.0947,-0.0931,-0.1005,-0.1001,-0.1006,-0.0987,-0.0989,-0.099,-0.1005,-0.0938,0,0,0,0,0,-0.069,-0.0704,-0.0726,-0.0741,-0.0754,-0.0781,-0.0798,-0.0809,-0.0834,-0.0848,-0.0881,-0.0915,-0.0942,-0.0968,-0.0998,-0.1051,-0.1049,-0.1076,-0.1077,-0.1078,-0.11,-0.1127,-0.1133,-0.1074,-0.1074,-0.1074,0,0,-0.0694,-0.0705,-0.0716,-0.0741,-0.0762,-0.0783,-0.0789,-0.082,-0.0841,-0.0858,-0.0906,-0.0925,-0.0955,-0.0994,-0.1019,-0.102,-0.1079,-0.108,-0.1081,-0.1103,-0.113,-0.1136,-0.1141,-0.1075,-0.1075,-0.1075,0,0,-0.07,-0.0719,-0.0732,-0.0755,-0.0785,-0.0797,-0.081,-0.0847,-0.0869,-0.0917,-0.0921,-0.0944,-0.1017,-0.1019,-0.1034,-0.1068,-0.1081,-0.1094,-0.1123,-0.1148,-0.1153,-0.1157,-0.1095,-0.1094,-0.11,-0.11,-0.11,0,-0.0702,-0.0722,-0.0741,-0.076,-0.078,-0.0805,-0.0827,-0.0855,-0.0902,-0.0918,-0.0933,-0.1002,-0.1022,-0.1049,-0.1062,-0.107,-0.1074,-0.1109,-0.1148,-0.1154,-0.1159,-0.1094,-0.1094,-0.1099,-0.1099,-0.1099,-0.1099,0,-0.0714,-0.074,-0.0754,-0.0781,-0.0802,-0.083,-0.0862,-0.0881,-0.0914,-0.0947,-0.0997,-0.1023,-0.1059,-0.107,-0.1088,-0.1133,-0.1113,-0.1138,-0.1141,-0.1164,-0.1093,-0.1093,-0.1099,-0.1099,-0.1099,-0.1099,0,0,-0.0693,-0.075,-0.0755,-0.0774,-0.082,-0.0832,-0.086,-0.089,-0.0905,-0.0969,-0.099,-0.1052,-0.108,-0.11,-0.1115,-0.1154,-0.116,-0.1184,-0.1185,-0.1113,-0.1172,-0.1074,-0.1063,-0.1216,-0.1218,-0.1219,-0.1083,0,-0.0698,-0.073,-0.076,-0.0794,-0.0817,-0.0841,-0.0871,-0.0901,-0.093,-0.0955,-0.0997,-0.104,-0.1089,-0.1106,-0.1154,-0.1183,-0.1174,-0.1192,-0.1171,-0.1168,-0.1073,-0.1066,-0.1224,-0.1083,-0.1083,-0.1082,-0.1082,0,-0.0697,-0.0719,-0.0756,-0.0803,-0.0816,-0.0838,-0.0854,-0.0894,-0.0929,-0.095,-0.0994,-0.1034,-0.1093,-0.1123,-0.1187,-0.1213,-0.1194,-0.12,-0.1195,-0.1122,-0.1073,-0.1074,-0.1082,-0.1082,-0.1082,-0.1082,-0.1082,0,-0.066,-0.0713,-0.0738,-0.0759,-0.0816,-0.0826,-0.0858,-0.0895,-0.0921,-0.0952,-0.0958,-0.1037,-0.1074,-0.1122,-0.1137,-0.1189,-0.1161,-0.1213,-0.1073,-0.1061,-0.1194,-0.1192,-0.121,-0.121,-0.121,-0.1211,-0.1211,0,-0.0648,-0.0671,-0.0724,-0.0741,-0.0758,-0.0823,-0.0844,-0.0862,-0.0904,-0.0922,-0.0979,-0.0969,-0.11,-0.1092,-0.1109,-0.1073,-0.1126,-0.1071,-0.1039,-0.118,-0.1179,-0.1189,-0.1188,-0.1206,-0.1207,-0.1208,-0.1209,0,-0.0609,-0.0653,-0.0678,-0.0732,-0.0746,-0.0765,-0.0822,-0.0829,-0.089,-0.0893,-0.0908,-0.0951,-0.097,-0.0996,-0.1024,-0.1017,-0.0984,-0.0921,-0.0985,-0.0959,-0.0869,-0.087,-0.081,-0.0806,-0.0803,-0.08,-0.0797,0,-0.0595,-0.061,-0.0649,-0.0647,-0.0673,-0.071,-0.0725,-0.0798,-0.0806,-0.0854,-0.0837,-0.0862,-0.0875,-0.0797,-0.0861,-0.0821,-0.0818,-0.0764,-0.0924,-0.0863,-0.0838,-0.0844,-0.0849,-0.0792,-0.0791,-0.079,-0.0789,0,-0.0563,-0.058,-0.0595,-0.0592,-0.06,-0.0601,-0.0639,-0.0634,-0.0717,-0.0769,-0.0739,-0.0733,-0.0715,-0.0743,-0.068,-0.0665,-0.0818,-0.0729,-0.074,-0.089,-0.0839,-0.082,-0.0829,-0.0777,-0.0779,-0.078,-0.078,0,-0.0531,-0.0522,-0.054,-0.0529,-0.053,-0.0502,-0.0524,-0.0537,-0.0567,-0.0647,-0.0616,-0.0631,-0.0684,-0.0649,-0.059,-0.0577,-0.0632,-0.0644,-0.0661,-0.0675,-0.0705,-0.0626,-0.0464,0,0,0,0,0,-0.0488,-0.0477,-0.047,-0.0447,-0.0443,-0.0438,-0.047,-0.0501,-0.0572,-0.0531,-0.0588,-0.0555,-0.0537,-0.0533,-0.0505,-0.0557,-0.0631,-0.0522,-0.0653,-0.0709,-0.0723,-0.0779,0,0,0,0,0,0,-0.0457,-0.0457,-0.0456,-0.0393,-0.0353,-0.0338,-0.0348,-0.0387,-0.0382,-0.0457,-0.0442,-0.0511,-0.0492,-0.0537,-0.0485,-0.049,-0.0561,-0.0545,-0.0544,-0.0701,-0.0714,-0.0725,-0.0787,0,0,0,0,0]},{"header":{"parameterUnit":"m.s-1","parameterCategory":2,"la1":30.2991,"la2":30.254,"lo1":-89.0895,"lo2":-89.0444,"dy":0.0017,"dx":0.0017,"nx":28,"ny":28,"refTime":"2025-12-10T09:00:00:Z","depth":"4","parameterNumber":3,"parameterNumberName":"V-component_of_CURRENTS"},"data":[0,0,0,0,0,0,0,0,0,0,0,0,0,0,0,0,0,0,0,0,0,0,0,0,0,0,0,0,0,0,0,0,0,0,0,0,0,0,0,0,0,0,0,0,0,0,0,0,0,0,0,0,0,0,0,0,0,0,-0.022,-0.022,0,-0.024,-0.0241,-0.0241,-0.0229,-0.0228,-0.0227,-0.0226,-0.0212,-0.0213,-0.0213,0,0,0,0,0,0,0,0,0,0,0,0,0,-0.0175,-0.0176,-0.022,-0.022,-0.022,-0.024,-0.0241,-0.0241,-0.0229,-0.0228,-0.0226,-0.0225,-0.0212,-0.0212,-0.0213,0,0,0,0,0,0,0,0,0,0,0,0,0,-0.0198,-0.0177,-0.022,-0.0213,-0.0213,-0.024,-0.0241,-0.0242,-0.0229,-0.0228,-0.0226,-0.0225,-0.0212,-0.0212,-0.0213,-0.0245,0,0,-0.0215,-0.0216,0,0,0,0,0,0,0,0,-0.0197,-0.02,-0.0214,-0.0214,-0.0213,-0.0227,-0.022,-0.024,-0.0229,-0.0226,-0.0226,-0.0224,-0.0213,-0.0213,-0.0226,-0.0244,-0.0244,-0.0215,-0.0216,-0.0216,-0.0216,0,0,0,0,0,0,0,-0.0195,-0.0199,-0.0231,-0.0214,-0.0214,-0.0211,-0.0213,-0.0224,-0.0229,-0.0226,-0.0225,-0.0222,-0.0213,-0.0225,-0.0225,-0.0244,-0.0215,-0.0216,-0.0217,-0.0217,-0.0311,-0.0313,0,0,0,0,0,0,-0.0188,-0.0198,-0.0231,-0.0232,-0.0198,-0.0213,-0.0215,-0.0227,-0.023,-0.0228,-0.0223,-0.0221,-0.0224,-0.0224,-0.0224,-0.0295,-0.0216,-0.0217,-0.0217,-0.0309,-0.0311,-0.0313,0,0,0,0,0,0,-0.0187,-0.0191,-0.023,-0.0211,-0.0216,-0.0214,-0.0228,-0.0228,-0.0237,-0.0227,-0.0225,-0.0231,-0.0223,-0.0223,-0.0252,-0.0293,-0.0217,-0.0218,-0.0306,-0.0309,-0.0312,-0.0415,0,0,0,0,0,0,-0.0186,-0.0191,-0.0203,-0.0212,-0.0216,-0.0257,-0.0229,-0.0229,-0.0236,-0.0234,-0.0233,-0.0231,-0.0222,-0.0251,-0.0253,-0.0292,-0.0218,-0.0304,-0.0308,-0.0311,-0.0409,-0.0421,-0.0432,0,0,0,0,0,-0.0184,-0.0207,-0.0204,-0.0207,-0.0231,-0.0258,-0.0262,-0.0257,-0.0238,-0.0257,-0.026,-0.023,-0.0276,-0.0254,-0.0255,-0.0296,-0.0302,-0.0306,-0.0311,-0.0404,-0.0419,-0.0431,0,0,0,0,0,0,-0.0195,-0.0207,-0.0204,-0.0229,-0.0246,-0.0255,-0.0269,-0.0262,-0.0281,-0.0277,-0.026,-0.026,-0.0305,-0.0285,-0.026,-0.0334,-0.0283,-0.0288,-0.0354,-0.0367,-0.0378,-0.0365,-0.0219,0,0,0,0,0,-0.0203,-0.0224,-0.0233,-0.0257,-0.0263,-0.0267,-0.0276,-0.0277,-0.0288,-0.0294,-0.0294,-0.03,-0.0328,-0.0333,-0.0351,-0.0388,-0.0353,-0.0414,-0.0425,-0.0435,-0.0426,-0.0419,-0.0428,-0.0328,-0.0328,-0.0328,0,0,-0.0216,-0.0222,-0.0237,-0.026,-0.027,-0.0302,-0.0271,-0.0294,-0.0324,-0.0291,-0.0334,-0.0344,-0.0348,-0.0401,-0.0417,-0.0385,-0.0448,-0.0441,-0.0449,-0.0434,-0.0424,-0.0434,-0.0442,-0.0332,-0.0331,-0.0331,0,0,-0.025,-0.0257,-0.0285,-0.0304,-0.0321,-0.0331,-0.0337,-0.0355,-0.0364,-0.041,-0.0401,-0.0436,-0.0461,-0.0484,-0.0495,-0.0577,-0.0515,-0.0577,-0.0618,-0.0613,-0.062,-0.0626,-0.0605,-0.0608,-0.0575,-0.0575,-0.0576,0,-0.0263,-0.0298,-0.0299,-0.033,-0.035,-0.0345,-0.0384,-0.0404,-0.0431,-0.0443,-0.0434,-0.0491,-0.0508,-0.0562,-0.0601,-0.0605,-0.0572,-0.0568,-0.0626,-0.0631,-0.0636,-0.0612,-0.0614,-0.0581,-0.058,-0.058,-0.0579,0,-0.0319,-0.0347,-0.0367,-0.0407,-0.0432,-0.0467,-0.0488,-0.0516,-0.0523,-0.0534,-0.0584,-0.061,-0.0634,-0.066,-0.0661,-0.0709,-0.0666,-0.0647,-0.0588,-0.0652,-0.0623,-0.0624,-0.0589,-0.0587,-0.0585,-0.0584,0,0,-0.0346,-0.0396,-0.0404,-0.0426,-0.0475,-0.0498,-0.0555,-0.0596,-0.0617,-0.065,-0.0674,-0.0752,-0.0738,-0.0749,-0.0753,-0.0758,-0.0791,-0.0717,-0.0714,-0.0689,-0.0755,-0.0687,-0.068,-0.0769,-0.077,-0.077,-0.0726,0,-0.0389,-0.0451,-0.0473,-0.054,-0.0571,-0.0593,-0.0641,-0.0677,-0.0699,-0.0722,-0.074,-0.0773,-0.0777,-0.0792,-0.0803,-0.079,-0.0794,-0.0803,-0.0702,-0.0699,-0.0625,-0.0679,-0.0772,-0.0726,-0.0726,-0.0726,-0.0726,0,-0.0436,-0.0467,-0.0539,-0.0588,-0.0604,-0.0649,-0.0706,-0.075,-0.0782,-0.0791,-0.0814,-0.0809,-0.0844,-0.0828,-0.0826,-0.0821,-0.08,-0.0782,-0.078,-0.0673,-0.063,-0.0646,-0.0726,-0.0726,-0.0726,-0.0726,-0.0726,0,-0.0442,-0.0511,-0.0565,-0.0589,-0.0652,-0.0687,-0.0724,-0.0771,-0.0792,-0.0829,-0.0829,-0.0853,-0.0859,-0.084,-0.0808,-0.0818,-0.0766,-0.0776,-0.0691,-0.0685,-0.0712,-0.0705,-0.0768,-0.0768,-0.0769,-0.0769,-0.0769,0,-0.0474,-0.0518,-0.0571,-0.06,-0.0657,-0.0698,-0.0756,-0.079,-0.0818,-0.0829,-0.0857,-0.0846,-0.086,-0.0825,-0.08,-0.0729,-0.076,-0.0699,-0.0673,-0.0758,-0.0758,-0.0712,-0.0706,-0.0767,-0.0767,-0.0768,-0.0768,0,-0.0483,-0.0523,-0.0579,-0.0642,-0.0663,-0.0707,-0.0764,-0.0792,-0.0822,-0.0832,-0.0838,-0.0843,-0.08,-0.0774,-0.0738,-0.0715,-0.0659,-0.0623,-0.0697,-0.0675,-0.0589,-0.0589,-0.0552,-0.0549,-0.0547,-0.0545,-0.0543,0,-0.0498,-0.0528,-0.0597,-0.0626,-0.0661,-0.072,-0.0755,-0.0795,-0.0804,-0.081,-0.0795,-0.0771,-0.0761,-0.0645,-0.0635,-0.0567,-0.0559,-0.0546,-0.0603,-0.059,-0.0569,-0.0573,-0.0576,-0.0539,-0.0539,-0.0538,-0.0538,0,-0.0511,-0.0538,-0.0577,-0.0632,-0.0676,-0.0721,-0.0758,-0.0752,-0.078,-0.0797,-0.0739,-0.0703,-0.0643,-0.0601,-0.0538,-0.0494,-0.0571,-0.0523,-0.0529,-0.0583,-0.0575,-0.0557,-0.0563,-0.053,-0.0531,-0.0532,-0.0532,0,-0.0514,-0.0538,-0.058,-0.063,-0.0683,-0.0706,-0.073,-0.0721,-0.0727,-0.0713,-0.0684,-0.064,-0.0633,-0.0558,-0.0492,-0.0446,-0.0461,-0.0482,-0.049,-0.0499,-0.05,-0.0483,-0.0388,0,0,0,0,0,-0.0503,-0.0525,-0.057,-0.0616,-0.0667,-0.0695,-0.0723,-0.0735,-0.0737,-0.0683,-0.068,-0.0611,-0.0533,-0.0506,-0.0445,-0.047,-0.0465,-0.04,-0.0496,-0.0485,-0.0495,-0.0499,0,0,0,0,0,0,-0.05,-0.0534,-0.0556,-0.0593,-0.0622,-0.0667,-0.0689,-0.0691,-0.0653,-0.0648,-0.0595,-0.0596,-0.0511,-0.0551,-0.0438,-0.0429,-0.0484,-0.0371,-0.037,-0.048,-0.0488,-0.0496,-0.0503,0,0,0,0,0]}]]